Time,TemperatureF,DewpointF,PressureIn,WindDirection,WindDirectionDegrees,WindSpeedMPH,WindSpeedGustMPH,Humidity,HourlyPrecipIn,Conditions,Clouds,dailyrainin,SoftwareType,DateUTC
2013-03-28 00:00:00,34.5,19.2,29.88,West,270,0.0,0.9,53,0.00,,,0.00,WSDL version 420,2013-03-28 04:00:00,
2013-03-28 00:02:00,34.5,19.3,29.88,WNW,293,0.0,0.0,54,0.00,,,0.00,WSDL version 420,2013-03-28 04:02:00,
2013-03-28 00:03:00,34.5,19.4,29.88,WNW,293,0.0,0.0,54,0.00,,,0.00,WSDL version 420,2013-03-28 04:03:00,
2013-03-28 00:08:00,34.5,19.6,29.88,WNW,293,0.0,0.0,54,0.00,,,0.00,WSDL version 420,2013-03-28 04:08:00,
2013-03-28 00:14:00,34.5,19.5,29.88,SW,225,0.0,1.6,54,0.00,,,0.00,WSDL version 420,2013-03-28 04:14:00,
2013-03-28 00:21:00,34.3,19.6,29.88,SW,225,0.0,0.0,54,0.00,,,0.00,WSDL version 420,2013-03-28 04:21:00,
2013-03-28 00:27:00,34.1,19.2,29.88,WSW,248,0.0,0.0,54,0.00,,,0.00,WSDL version 420,2013-03-28 04:27:00,
2013-03-28 00:33:00,33.9,19.5,29.88,NW,315,0.0,0.0,55,0.00,,,0.00,WSDL version 420,2013-03-28 04:33:00,
2013-03-28 00:39:00,33.9,19.4,29.88,WNW,293,0.0,0.0,55,0.00,,,0.00,WSDL version 420,2013-03-28 04:39:00,
2013-03-28 00:45:00,33.9,19.5,29.88,NW,315,0.0,1.1,55,0.00,,,0.00,WSDL version 420,2013-03-28 04:45:00,
2013-03-28 00:51:00,34.0,19.9,29.85,NW,315,0.0,0.0,55,0.00,,,0.00,WSDL version 420,2013-03-28 04:51:00,
2013-03-28 00:57:00,34.3,20.3,29.85,SW,225,0.0,0.0,57,0.00,,,0.00,WSDL version 420,2013-03-28 04:57:00,
2013-03-28 01:03:00,34.0,20.1,29.88,West,270,0.0,0.0,56,0.00,,,0.00,WSDL version 420,2013-03-28 05:03:00,
2013-03-28 01:09:00,34.0,19.9,29.88,NW,315,0.0,0.0,56,0.00,,,0.00,WSDL version 420,2013-03-28 05:09:00,
2013-03-28 01:15:00,34.0,20.1,29.88,West,270,0.0,0.0,57,0.00,,,0.00,WSDL version 420,2013-03-28 05:15:00,
2013-03-28 01:21:00,34.1,20.3,29.85,WNW,287,0.0,0.0,56,0.00,,,0.00,WSDL version 420,2013-03-28 05:21:00,
2013-03-28 01:28:00,34.1,20.2,29.85,NW,315,0.0,0.0,56,0.00,,,0.00,WSDL version 420,2013-03-28 05:28:00,
2013-03-28 01:33:00,33.9,20.4,29.85,North,360,0.0,0.0,57,0.00,,,0.00,WSDL version 420,2013-03-28 05:33:00,
2013-03-28 01:39:00,33.6,20.2,29.85,North,360,0.0,0.0,57,0.00,,,0.00,WSDL version 420,2013-03-28 05:39:00,
2013-03-28 01:46:00,33.6,20.4,29.85,North,360,0.0,0.0,58,0.00,,,0.00,WSDL version 420,2013-03-28 05:46:00,
2013-03-28 01:52:00,33.7,20.5,29.85,North,360,0.0,0.0,58,0.00,,,0.00,WSDL version 420,2013-03-28 05:52:00,
2013-03-28 01:58:00,33.6,20.8,29.85,North,360,0.0,0.0,59,0.00,,,0.00,WSDL version 420,2013-03-28 05:58:00,
2013-03-28 02:04:00,33.4,20.3,29.85,North,360,0.0,0.0,58,0.00,,,0.00,WSDL version 420,2013-03-28 06:04:00,
2013-03-28 02:10:00,33.1,20.1,29.85,North,360,0.0,0.0,59,0.00,,,0.00,WSDL version 420,2013-03-28 06:10:00,
2013-03-28 02:17:00,33.1,20.3,29.85,North,360,0.0,0.0,59,0.00,,,0.00,WSDL version 420,2013-03-28 06:17:00,
2013-03-28 02:23:00,33.0,20.3,29.85,North,360,0.0,0.0,60,0.00,,,0.00,WSDL version 420,2013-03-28 06:23:00,
2013-03-28 02:29:00,33.0,20.2,29.85,North,360,0.0,0.0,59,0.00,,,0.00,WSDL version 420,2013-03-28 06:29:00,
2013-03-28 02:35:00,33.2,20.6,29.85,North,360,0.0,0.0,59,0.00,,,0.00,WSDL version 420,2013-03-28 06:35:00,
2013-03-28 02:41:00,33.4,21.0,29.85,North,360,0.0,0.0,60,0.00,,,0.00,WSDL version 420,2013-03-28 06:41:00,
2013-03-28 02:48:00,33.1,20.8,29.85,North,360,0.0,0.0,60,0.00,,,0.00,WSDL version 420,2013-03-28 06:48:00,
2013-03-28 02:54:00,33.3,20.8,29.85,NW,315,0.0,1.1,60,0.00,,,0.00,WSDL version 420,2013-03-28 06:54:00,
2013-03-28 03:00:00,33.3,21.1,29.85,NNE,23,0.0,0.0,60,0.00,,,0.00,WSDL version 420,2013-03-28 07:00:00,
2013-03-28 03:06:00,33.3,21.2,29.85,NW,315,0.0,0.0,62,-99.99,,,-99.99,WSDL version 420,2013-03-28 07:06:00,
2013-03-28 03:13:00,33.3,21.0,29.85,NW,315,0.0,0.0,61,0.00,,,0.00,WSDL version 420,2013-03-28 07:13:00,
2013-03-28 03:19:00,33.1,20.8,29.85,NW,315,0.0,0.0,60,0.00,,,0.00,WSDL version 420,2013-03-28 07:19:00,
2013-03-28 03:25:00,33.0,20.8,29.85,North,356,0.0,0.0,62,0.00,,,0.00,WSDL version 420,2013-03-28 07:25:00,
2013-03-28 03:31:00,32.7,20.8,29.85,NNW,330,0.0,0.0,61,0.00,,,0.00,WSDL version 420,2013-03-28 07:31:00,
2013-03-28 03:39:00,32.9,20.9,29.85,WNW,293,0.0,0.0,61,0.00,,,0.00,WSDL version 420,2013-03-28 07:39:00,
2013-03-28 03:45:00,32.8,20.5,29.85,WNW,293,0.0,0.0,60,0.00,,,0.00,WSDL version 420,2013-03-28 07:45:00,
2013-03-28 03:51:00,32.6,20.4,29.85,WNW,293,0.0,0.0,60,0.00,,,0.00,WSDL version 420,2013-03-28 07:51:00,
2013-03-28 03:57:00,32.7,20.7,29.85,WNW,293,0.0,0.0,61,0.00,,,0.00,WSDL version 420,2013-03-28 07:57:00,
2013-03-28 04:03:00,32.8,20.7,29.85,WNW,293,0.0,0.0,61,0.00,,,0.00,WSDL version 420,2013-03-28 08:03:00,
2013-03-28 04:09:00,33.0,21.0,29.85,WNW,293,0.0,0.0,60,0.00,,,0.00,WSDL version 420,2013-03-28 08:09:00,
2013-03-28 04:16:00,33.3,21.3,29.85,WNW,293,0.0,0.0,61,0.00,,,0.00,WSDL version 420,2013-03-28 08:16:00,
2013-03-28 04:22:00,33.6,22.0,29.85,WNW,293,0.0,0.0,62,0.00,,,0.00,WSDL version 420,2013-03-28 08:22:00,
2013-03-28 04:28:00,33.6,21.6,29.85,WNW,293,0.0,0.0,61,0.00,,,0.00,WSDL version 420,2013-03-28 08:28:00,
2013-03-28 04:34:00,33.6,21.5,29.85,WNW,293,0.0,0.0,60,0.00,,,0.00,WSDL version 420,2013-03-28 08:34:00,
2013-03-28 04:40:00,33.6,21.6,29.85,WNW,293,0.0,0.0,61,0.00,,,0.00,WSDL version 420,2013-03-28 08:40:00,
2013-03-28 04:46:00,33.6,21.6,29.85,WNW,293,0.0,0.0,61,0.00,,,0.00,WSDL version 420,2013-03-28 08:46:00,
2013-03-28 04:53:00,33.5,21.9,29.85,WNW,293,0.0,0.0,62,0.00,,,0.00,WSDL version 420,2013-03-28 08:53:00,
2013-03-28 04:59:00,33.3,21.3,29.85,WNW,293,0.0,0.0,61,0.00,,,0.00,WSDL version 420,2013-03-28 08:59:00,
2013-03-28 05:05:00,33.3,21.5,29.85,WNW,293,0.0,0.0,61,0.00,,,0.00,WSDL version 420,2013-03-28 09:05:00,
2013-03-28 05:11:00,33.3,21.7,29.85,WNW,293,0.0,0.0,63,0.00,,,0.00,WSDL version 420,2013-03-28 09:11:00,
2013-03-28 05:17:00,33.4,21.8,29.85,WNW,293,0.0,0.0,62,0.00,,,0.00,WSDL version 420,2013-03-28 09:17:00,
2013-03-28 05:23:00,33.5,21.8,29.85,WNW,293,0.0,0.0,62,0.00,,,0.00,WSDL version 420,2013-03-28 09:23:00,
2013-03-28 05:29:00,33.5,21.9,29.85,WNW,293,0.0,0.0,62,0.00,,,0.00,WSDL version 420,2013-03-28 09:29:00,
2013-03-28 05:35:00,33.4,21.8,29.85,WNW,293,0.0,0.0,62,0.00,,,0.00,WSDL version 420,2013-03-28 09:35:00,
2013-03-28 05:41:00,33.3,22.0,29.85,WNW,293,0.0,0.0,63,0.00,,,0.00,WSDL version 420,2013-03-28 09:41:00,
2013-03-28 05:47:00,33.4,22.1,29.85,WNW,293,0.0,0.9,62,0.00,,,0.00,WSDL version 420,2013-03-28 09:47:00,
2013-03-28 05:53:00,33.6,22.3,29.85,South,180,0.0,0.0,63,0.00,,,0.00,WSDL version 420,2013-03-28 09:53:00,
2013-03-28 05:59:00,33.5,22.4,29.85,South,180,0.0,0.0,63,0.00,,,0.00,WSDL version 420,2013-03-28 09:59:00,
2013-03-28 06:08:00,33.4,22.5,29.85,South,180,0.0,0.0,64,0.00,,,0.00,WSDL version 420,2013-03-28 10:08:00,
2013-03-28 06:14:00,33.3,22.2,29.85,South,180,0.0,0.0,64,0.00,,,0.00,WSDL version 420,2013-03-28 10:14:00,
2013-03-28 06:20:00,33.3,22.8,29.88,WSW,248,0.0,0.0,64,0.00,,,0.00,WSDL version 420,2013-03-28 10:20:00,
2013-03-28 06:26:00,33.0,22.3,29.88,West,270,0.0,0.0,64,0.00,,,0.00,WSDL version 420,2013-03-28 10:26:00,
2013-03-28 06:32:00,32.8,21.9,29.88,West,270,0.0,0.0,64,0.00,,,0.00,WSDL version 420,2013-03-28 10:32:00,
2013-03-28 06:38:00,32.7,22.1,29.88,SW,214,0.0,0.0,64,0.00,,,0.00,WSDL version 420,2013-03-28 10:38:00,
2013-03-28 06:45:00,32.7,21.8,29.88,SSE,158,0.0,0.0,64,0.00,,,0.00,WSDL version 420,2013-03-28 10:45:00,
2013-03-28 06:51:00,32.6,22.0,29.88,SSE,158,0.0,0.0,65,0.00,,,0.00,WSDL version 420,2013-03-28 10:51:00,
2013-03-28 06:57:00,32.5,22.3,29.88,SSE,158,0.0,0.0,66,0.00,,,0.00,WSDL version 420,2013-03-28 10:57:00,
2013-03-28 07:03:00,32.5,22.3,29.88,West,270,0.0,0.0,65,0.00,,,0.00,WSDL version 420,2013-03-28 11:03:00,
2013-03-28 07:09:00,32.5,22.3,29.88,West,270,0.0,0.0,66,0.00,,,0.00,WSDL version 420,2013-03-28 11:09:00,
2013-03-28 07:15:00,32.3,22.2,29.88,SSW,203,0.0,0.0,65,0.00,,,0.00,WSDL version 420,2013-03-28 11:15:00,
2013-03-28 07:21:00,32.2,22.5,29.88,SSW,203,0.0,0.0,66,0.00,,,0.00,WSDL version 420,2013-03-28 11:21:00,
2013-03-28 07:26:00,32.1,22.3,29.88,SE,135,0.0,0.0,66,0.00,,,0.00,WSDL version 420,2013-03-28 11:26:00,
2013-03-28 07:32:00,32.2,22.5,29.88,WSW,248,0.0,0.0,67,0.00,,,0.00,WSDL version 420,2013-03-28 11:32:00,
2013-03-28 07:38:00,32.2,22.2,29.88,SSE,158,0.0,0.0,66,0.00,,,0.00,WSDL version 420,2013-03-28 11:38:00,
2013-03-28 07:44:00,32.2,22.5,29.88,SSE,165,0.0,0.0,68,0.00,,,0.00,WSDL version 420,2013-03-28 11:44:00,
2013-03-28 07:51:00,32.5,23.0,29.91,SSE,165,0.0,0.0,67,0.00,,,0.00,WSDL version 420,2013-03-28 11:51:00,
2013-03-28 07:57:00,32.7,23.3,29.91,SE,146,0.0,0.0,68,0.00,,,0.00,WSDL version 420,2013-03-28 11:57:00,
2013-03-28 08:03:00,33.1,23.7,29.91,SE,135,3.1,3.1,68,0.00,,,0.00,WSDL version 420,2013-03-28 12:03:00,
2013-03-28 08:09:00,34.0,24.3,29.91,SE,135,3.1,3.1,67,0.00,,,0.00,WSDL version 420,2013-03-28 12:09:00,
2013-03-28 08:15:00,35.1,25.1,29.91,SE,135,1.9,3.1,66,-99.99,,,-99.99,WSDL version 420,2013-03-28 12:15:00,
2013-03-28 08:21:00,36.3,25.6,29.91,SSE,158,2.2,2.5,64,0.00,,,0.00,WSDL version 420,2013-03-28 12:21:00,
2013-03-28 08:27:00,37.0,25.9,29.91,SW,233,1.9,3.1,64,0.00,,,0.00,WSDL version 420,2013-03-28 12:27:00,
2013-03-28 08:33:00,37.6,25.8,29.91,NE,45,2.8,3.1,62,0.00,,,0.00,WSDL version 420,2013-03-28 12:33:00,
2013-03-28 08:39:00,37.6,25.1,29.91,NW,304,0.6,3.4,60,0.00,,,0.00,WSDL version 420,2013-03-28 12:39:00,
2013-03-28 08:46:00,37.6,24.6,29.91,North,11,0.8,3.4,59,0.00,,,0.00,WSDL version 420,2013-03-28 12:46:00,
2013-03-28 08:52:00,38.0,24.9,29.91,NNE,23,0.9,2.7,59,0.00,,,0.00,WSDL version 420,2013-03-28 12:52:00,
2013-03-28 08:58:00,38.5,25.6,29.91,ENE,68,2.2,2.7,59,0.00,,,0.00,WSDL version 420,2013-03-28 12:58:00,
2013-03-28 09:04:00,38.8,25.4,29.91,North,360,2.7,2.7,58,0.00,,,0.00,WSDL version 420,2013-03-28 13:04:00,
2013-03-28 09:10:00,38.9,25.4,29.91,NNE,15,2.8,2.9,58,0.00,,,0.00,WSDL version 420,2013-03-28 13:10:00,
2013-03-28 09:16:00,38.8,25.3,29.91,NE,45,2.9,3.1,58,0.00,,,0.00,WSDL version 420,2013-03-28 13:16:00,
2013-03-28 09:22:00,39.2,25.7,29.91,SE,135,3.1,3.1,58,0.00,,,0.00,WSDL version 420,2013-03-28 13:22:00,
2013-03-28 09:28:00,39.3,25.5,29.91,ESE,113,1.0,4.5,58,0.00,,,0.00,WSDL version 420,2013-03-28 13:28:00,
2013-03-28 09:35:00,40.2,26.4,29.91,East,79,5.0,7.4,58,0.00,,,0.00,WSDL version 420,2013-03-28 13:35:00,
2013-03-28 09:41:00,40.3,27.0,29.91,SW,214,4.3,7.4,59,0.00,,,0.00,WSDL version 420,2013-03-28 13:41:00,
2013-03-28 09:47:00,40.6,27.3,29.91,NE,56,2.9,7.4,59,0.00,,,0.00,WSDL version 420,2013-03-28 13:47:00,
2013-03-28 09:53:00,40.8,27.6,29.91,SSE,163,1.8,3.4,59,0.00,,,0.00,WSDL version 420,2013-03-28 13:53:00,
2013-03-28 09:59:00,40.9,27.7,29.91,ENE,60,2.2,5.6,59,-99.99,,,-99.99,WSDL version 420,2013-03-28 13:59:00,
2013-03-28 10:06:00,40.7,27.9,29.91,NW,315,4.3,6.3,61,0.00,,,0.00,WSDL version 420,2013-03-28 14:06:00,
2013-03-28 10:12:00,41.1,28.9,29.91,NW,323,2.7,6.3,62,0.00,,,0.00,WSDL version 420,2013-03-28 14:12:00,
2013-03-28 10:18:00,41.1,29.3,29.91,NNE,23,3.4,6.0,62,0.00,,,0.00,WSDL version 420,2013-03-28 14:18:00,
2013-03-28 10:24:00,41.1,30.2,29.91,NE,53,3.9,6.0,65,0.00,,,0.00,WSDL version 420,2013-03-28 14:24:00,
2013-03-28 10:30:00,41.4,30.5,29.91,WNW,293,3.6,4.3,65,0.00,,,0.00,WSDL version 420,2013-03-28 14:30:00,
2013-03-28 10:36:00,41.5,30.2,29.91,North,349,4.9,4.9,62,0.00,,,0.00,WSDL version 420,2013-03-28 14:36:00,
2013-03-28 10:42:00,41.6,31.0,29.91,ESE,113,2.9,4.9,65,0.00,,,0.00,WSDL version 420,2013-03-28 14:42:00,
2013-03-28 10:48:00,41.6,31.3,29.91,ENE,68,3.8,3.8,68,0.00,,,0.00,WSDL version 420,2013-03-28 14:48:00,
2013-03-28 10:54:00,41.7,30.7,29.91,NE,53,3.1,4.3,63,0.00,,,0.00,WSDL version 420,2013-03-28 14:54:00,
2013-03-28 11:00:00,41.5,30.4,29.91,West,259,3.5,5.6,65,0.00,,,0.00,WSDL version 420,2013-03-28 15:00:00,
2013-03-28 11:06:00,41.5,31.3,29.91,NNW,338,4.9,5.6,67,0.00,,,0.00,WSDL version 420,2013-03-28 15:06:00,
2013-03-28 11:13:00,41.6,31.9,29.91,NW,323,3.6,5.4,67,0.00,,,0.00,WSDL version 420,2013-03-28 15:13:00,
2013-03-28 11:19:00,41.6,32.4,29.91,NE,45,1.6,5.6,71,0.00,,,0.00,WSDL version 420,2013-03-28 15:19:00,
2013-03-28 11:25:00,41.7,32.9,29.91,SSE,150,2.6,5.6,71,0.00,,,0.00,WSDL version 420,2013-03-28 15:25:00,
2013-03-28 11:31:00,41.5,32.3,29.91,NE,53,3.1,4.0,70,0.00,,,0.00,WSDL version 420,2013-03-28 15:31:00,
2013-03-28 11:38:00,41.7,31.9,29.91,North,360,2.5,4.0,66,0.00,,,0.00,WSDL version 420,2013-03-28 15:38:00,
2013-03-28 11:44:00,41.8,31.4,29.91,NNE,23,4.7,6.3,66,0.00,,,0.00,WSDL version 420,2013-03-28 15:44:00,
2013-03-28 11:50:00,42.0,32.3,29.91,SW,236,2.0,6.3,69,0.00,,,0.00,WSDL version 420,2013-03-28 15:50:00,
2013-03-28 11:56:00,42.3,31.9,29.91,NW,315,1.7,3.8,67,0.00,,,0.00,WSDL version 420,2013-03-28 15:56:00,
2013-03-28 12:02:00,42.3,32.0,29.91,NNW,338,2.0,3.8,67,0.00,,,0.00,WSDL version 420,2013-03-28 16:02:00,
2013-03-28 12:08:00,42.5,32.8,29.91,NE,34,3.0,4.0,68,0.00,,,0.00,WSDL version 420,2013-03-28 16:08:00,
2013-03-28 12:14:00,43.0,32.7,29.91,ESE,118,1.8,4.0,66,0.00,,,0.00,WSDL version 420,2013-03-28 16:14:00,
2013-03-28 12:20:00,44.2,32.5,29.91,SE,144,1.6,3.1,62,0.00,,,0.00,WSDL version 420,2013-03-28 16:20:00,
2013-03-28 12:26:00,43.8,31.4,29.91,NNW,338,0.0,3.1,60,0.00,,,0.00,WSDL version 420,2013-03-28 16:26:00,
2013-03-28 12:33:00,44.5,32.0,29.91,NW,315,2.3,2.7,62,0.00,,,0.00,WSDL version 420,2013-03-28 16:33:00,
2013-03-28 12:39:00,44.5,31.3,29.91,East,96,2.1,4.3,59,0.00,,,0.00,WSDL version 420,2013-03-28 16:39:00,
2013-03-28 12:45:00,44.7,31.3,29.91,ESE,107,2.9,4.3,59,0.00,,,0.00,WSDL version 420,2013-03-28 16:45:00,
2013-03-28 12:51:00,45.0,31.0,29.91,NNW,338,3.4,3.8,57,0.00,,,0.00,WSDL version 420,2013-03-28 16:51:00,
2013-03-28 12:57:00,46.3,31.6,29.91,ENE,73,3.2,4.7,56,0.00,,,0.00,WSDL version 420,2013-03-28 16:57:00,
2013-03-28 13:03:00,46.8,31.5,29.91,ESE,113,3.6,4.7,55,0.00,,,0.00,WSDL version 420,2013-03-28 17:03:00,
2013-03-28 13:09:00,46.0,30.6,29.91,SSE,149,2.1,3.8,55,0.00,,,0.00,WSDL version 420,2013-03-28 17:09:00,
2013-03-28 13:16:00,46.3,31.3,29.91,NE,56,3.2,9.6,55,0.00,,,0.00,WSDL version 420,2013-03-28 17:16:00,
2013-03-28 13:22:00,46.3,31.2,29.91,SE,135,1.3,4.7,56,0.00,,,0.00,WSDL version 420,2013-03-28 17:22:00,
2013-03-28 13:28:00,46.3,30.8,29.91,ENE,75,2.8,4.3,54,0.00,,,0.00,WSDL version 420,2013-03-28 17:28:00,
2013-03-28 13:34:00,45.9,30.2,29.91,NE,45,2.5,4.9,54,0.00,,,0.00,WSDL version 420,2013-03-28 17:34:00,
2013-03-28 13:40:00,45.4,29.7,29.91,East,84,2.0,4.9,54,0.00,,,0.00,WSDL version 420,2013-03-28 17:40:00,
2013-03-28 13:46:00,45.6,29.9,29.91,SSW,195,1.6,4.9,54,0.00,,,0.00,WSDL version 420,2013-03-28 17:46:00,
2013-03-28 13:52:00,45.8,29.7,29.91,ENE,68,2.3,4.3,53,0.00,,,0.00,WSDL version 420,2013-03-28 17:52:00,
2013-03-28 13:58:00,46.0,30.0,29.91,SE,146,4.5,6.0,53,0.00,,,0.00,WSDL version 420,2013-03-28 17:58:00,
2013-03-28 14:06:00,46.0,29.7,29.91,NW,315,3.1,6.0,53,0.00,,,0.00,WSDL version 420,2013-03-28 18:06:00,
2013-03-28 14:12:00,46.3,29.6,29.91,NW,304,1.3,5.4,52,0.00,,,0.00,WSDL version 420,2013-03-28 18:12:00,
2013-03-28 14:19:00,46.3,29.7,29.91,NE,34,1.5,3.6,52,0.00,,,0.00,WSDL version 420,2013-03-28 18:19:00,
2013-03-28 14:25:00,46.6,29.4,29.91,SE,124,5.4,5.8,51,0.00,,,0.00,WSDL version 420,2013-03-28 18:25:00,
2013-03-28 14:31:00,47.7,30.4,29.91,NE,45,2.0,5.8,51,0.00,,,0.00,WSDL version 420,2013-03-28 18:31:00,
2013-03-28 14:37:00,47.2,29.5,29.91,NE,45,4.8,6.3,50,0.00,,,0.00,WSDL version 420,2013-03-28 18:37:00,
2013-03-28 14:43:00,46.9,29.3,29.91,North,8,4.3,6.3,50,0.00,,,0.00,WSDL version 420,2013-03-28 18:43:00,
2013-03-28 14:49:00,46.9,29.2,29.91,ESE,113,4.5,6.3,50,0.00,,,0.00,WSDL version 420,2013-03-28 18:49:00,
2013-03-28 14:55:00,46.7,28.8,29.91,ENE,68,2.8,4.9,49,0.00,,,0.00,WSDL version 420,2013-03-28 18:55:00,
2013-03-28 15:01:00,46.6,29.0,29.91,NE,34,2.5,3.4,50,0.00,,,0.00,WSDL version 420,2013-03-28 19:01:00,
2013-03-28 15:07:00,46.5,28.9,29.91,North,360,3.1,3.4,50,0.00,,,0.00,WSDL version 420,2013-03-28 19:07:00,
2013-03-28 15:13:00,46.6,28.6,29.91,ENE,62,3.0,3.1,49,0.00,,,0.00,WSDL version 420,2013-03-28 19:13:00,
2013-03-28 15:19:00,46.5,28.7,29.91,West,259,4.0,6.0,50,0.00,,,0.00,WSDL version 420,2013-03-28 19:19:00,
2013-03-28 15:25:00,47.0,28.8,29.91,NNE,23,2.5,6.0,49,0.00,,,0.00,WSDL version 420,2013-03-28 19:25:00,
2013-03-28 15:32:00,46.8,28.6,29.91,North,8,3.0,4.0,49,0.00,,,0.00,WSDL version 420,2013-03-28 19:32:00,
2013-03-28 15:38:00,46.4,28.3,29.91,SSE,162,2.8,7.6,49,0.00,,,0.00,WSDL version 420,2013-03-28 19:38:00,
2013-03-28 15:44:00,46.6,28.5,29.91,West,270,2.7,4.0,49,0.00,,,0.00,WSDL version 420,2013-03-28 19:44:00,
2013-03-28 15:50:00,47.1,29.0,29.91,North,360,3.0,4.7,49,0.00,,,0.00,WSDL version 420,2013-03-28 19:50:00,
2013-03-28 15:56:00,47.4,29.2,29.91,North,360,2.2,8.5,49,0.00,,,0.00,WSDL version 420,2013-03-28 19:56:00,
2013-03-28 16:03:00,47.1,28.9,29.91,SSE,150,2.2,4.9,49,0.00,,,0.00,WSDL version 420,2013-03-28 20:03:00,
2013-03-28 16:09:00,47.1,28.9,29.91,ENE,60,3.4,3.8,49,0.00,,,0.00,WSDL version 420,2013-03-28 20:09:00,
2013-03-28 16:15:00,47.3,29.1,29.91,ESE,113,1.3,3.8,49,0.00,,,0.00,WSDL version 420,2013-03-28 20:15:00,
2013-03-28 16:22:00,47.2,29.1,29.91,North,360,3.1,3.8,49,0.00,,,0.00,WSDL version 420,2013-03-28 20:22:00,
2013-03-28 16:28:00,46.7,28.6,29.91,NNW,347,2.6,6.5,49,0.00,,,0.00,WSDL version 420,2013-03-28 20:28:00,
2013-03-28 16:34:00,46.5,28.3,29.91,SW,225,0.9,6.5,49,0.00,,,0.00,WSDL version 420,2013-03-28 20:34:00,
2013-03-28 16:40:00,46.3,28.2,29.91,NW,315,4.5,4.7,49,0.00,,,0.00,WSDL version 420,2013-03-28 20:40:00,
2013-03-28 16:46:00,46.0,28.3,29.91,WNW,285,3.8,4.7,50,0.00,,,0.00,WSDL version 420,2013-03-28 20:46:00,
2013-03-28 16:52:00,46.0,28.5,29.91,West,259,2.8,4.7,50,0.00,,,0.00,WSDL version 420,2013-03-28 20:52:00,
2013-03-28 16:58:00,46.1,28.3,29.91,East,90,2.5,3.8,50,0.00,,,0.00,WSDL version 420,2013-03-28 20:58:00,
2013-03-28 17:05:00,46.3,28.2,29.91,NE,45,2.9,2.9,49,0.00,,,0.00,WSDL version 420,2013-03-28 21:05:00,
2013-03-28 17:11:00,46.3,28.2,29.91,WNW,293,1.1,2.9,49,0.00,,,0.00,WSDL version 420,2013-03-28 21:11:00,
2013-03-28 17:17:00,46.5,28.4,29.91,NNW,338,1.6,2.9,49,0.00,,,0.00,WSDL version 420,2013-03-28 21:17:00,
2013-03-28 17:23:00,46.5,28.4,29.91,SE,135,3.4,3.4,49,0.00,,,0.00,WSDL version 420,2013-03-28 21:23:00,
2013-03-28 17:29:00,46.3,28.2,29.91,SSE,158,1.6,3.4,49,0.00,,,0.00,WSDL version 420,2013-03-28 21:29:00,
2013-03-28 17:36:00,46.0,28.0,29.91,East,90,4.2,4.9,49,0.00,,,0.00,WSDL version 420,2013-03-28 21:36:00,
2013-03-28 17:42:00,46.0,28.1,29.91,ESE,113,3.8,4.9,50,0.00,,,0.00,WSDL version 420,2013-03-28 21:42:00,
2013-03-28 17:48:00,45.7,28.0,29.94,NE,45,2.5,3.8,50,0.00,,,0.00,WSDL version 420,2013-03-28 21:48:00,
2013-03-28 17:54:00,45.7,28.1,29.94,NE,45,2.5,2.5,50,0.00,,,0.00,WSDL version 420,2013-03-28 21:54:00,
2013-03-28 18:00:00,45.6,28.1,29.94,SE,143,0.7,2.5,50,0.00,,,0.00,WSDL version 420,2013-03-28 22:00:00,
2013-03-28 18:06:00,45.5,28.0,29.94,South,180,0.0,2.5,50,0.00,,,0.00,WSDL version 420,2013-03-28 22:06:00,
2013-03-28 18:12:00,45.3,27.8,29.94,South,180,0.0,0.0,50,0.00,,,0.00,WSDL version 420,2013-03-28 22:12:00,
2013-03-28 18:18:00,45.2,27.7,29.94,South,180,0.9,0.9,50,0.00,,,0.00,WSDL version 420,2013-03-28 22:18:00,
2013-03-28 18:24:00,45.1,27.6,29.94,South,180,0.9,0.9,50,0.00,,,0.00,WSDL version 420,2013-03-28 22:24:00,
2013-03-28 18:30:00,44.8,27.3,29.94,South,180,0.9,0.9,50,0.00,,,0.00,WSDL version 420,2013-03-28 22:30:00,
2013-03-28 18:36:00,44.6,27.1,29.94,NE,45,1.9,3.8,50,0.00,,,0.00,WSDL version 420,2013-03-28 22:36:00,
2013-03-28 18:42:00,44.4,27.1,29.94,NNE,23,0.0,3.8,51,0.00,,,0.00,WSDL version 420,2013-03-28 22:42:00,
2013-03-28 18:48:00,44.4,27.4,29.97,NNE,23,0.0,0.0,51,0.00,,,0.00,WSDL version 420,2013-03-28 22:48:00,
2013-03-28 18:54:00,44.2,27.3,29.97,North,-999,-999.0,-999.0,51,0.00,,,0.00,WSDL version 420,2013-03-28 22:54:00,
2013-03-28 19:01:00,44.1,27.1,29.97,WNW,293,0.0,0.0,51,0.00,,,0.00,WSDL version 420,2013-03-28 23:01:00,
2013-03-28 19:07:00,44.1,27.1,29.97,NW,315,0.0,0.0,51,0.00,,,0.00,WSDL version 420,2013-03-28 23:07:00,
2013-03-28 19:13:00,43.9,27.1,29.97,North,-999,-999.0,-999.0,52,0.00,,,0.00,WSDL version 420,2013-03-28 23:13:00,
2013-03-28 19:19:00,43.7,27.3,29.97,North,-999,-999.0,-999.0,52,0.00,,,0.00,WSDL version 420,2013-03-28 23:19:00,
2013-03-28 19:25:00,43.5,27.1,29.97,North,-999,-999.0,-999.0,52,0.00,,,0.00,WSDL version 420,2013-03-28 23:25:00,
2013-03-28 19:31:00,43.3,26.9,29.97,North,-999,-999.0,-999.0,52,0.00,,,0.00,WSDL version 420,2013-03-28 23:31:00,
2013-03-28 19:37:00,43.0,26.6,29.97,North,-999,-999.0,-999.0,52,0.00,,,0.00,WSDL version 420,2013-03-28 23:37:00,
2013-03-28 19:43:00,42.2,26.2,29.97,North,-999,-999.0,-999.0,53,0.00,,,0.00,WSDL version 420,2013-03-28 23:43:00,
2013-03-28 19:49:00,42.1,26.3,30.00,North,-999,-999.0,-999.0,53,0.00,,,0.00,WSDL version 420,2013-03-28 23:49:00,
2013-03-28 19:55:00,42.3,26.5,30.00,North,-999,-999.0,-999.0,54,0.00,,,0.00,WSDL version 420,2013-03-28 23:55:00,
2013-03-28 20:01:00,42.3,26.7,30.00,North,-999,-999.0,-999.0,54,0.00,,,0.00,WSDL version 420,2013-03-29 00:01:00,
2013-03-28 20:08:00,42.1,26.6,30.00,North,-999,-999.0,-999.0,54,-99.99,,,-99.99,WSDL version 420,2013-03-29 00:08:00,
2013-03-28 20:14:00,41.9,26.5,30.00,South,180,1.1,1.1,54,0.00,,,0.00,WSDL version 420,2013-03-29 00:14:00,
2013-03-28 20:20:00,41.6,26.2,30.00,NNE,23,1.6,1.6,54,0.00,,,0.00,WSDL version 420,2013-03-29 00:20:00,
2013-03-28 20:26:00,41.1,25.7,30.00,NNW,330,0.0,1.6,54,0.00,,,0.00,WSDL version 420,2013-03-29 00:26:00,
2013-03-28 20:32:00,40.9,25.8,30.00,SSW,203,0.0,3.6,55,0.00,,,0.00,WSDL version 420,2013-03-29 00:32:00,
2013-03-28 20:38:00,40.3,25.5,30.00,NE,45,0.0,3.6,55,0.00,,,0.00,WSDL version 420,2013-03-29 00:38:00,
2013-03-28 20:45:00,40.0,25.1,30.00,East,79,0.0,0.0,55,0.00,,,0.00,WSDL version 420,2013-03-29 00:45:00,
2013-03-28 20:51:00,39.7,25.3,30.00,ESE,113,0.0,0.0,56,0.00,,,0.00,WSDL version 420,2013-03-29 00:51:00,
2013-03-28 20:57:00,39.7,25.3,30.00,West,270,0.0,0.0,56,0.00,,,0.00,WSDL version 420,2013-03-29 00:57:00,
2013-03-28 21:03:00,39.7,25.3,30.00,SSW,203,0.0,0.0,56,0.00,,,0.00,WSDL version 420,2013-03-29 01:03:00,
2013-03-28 21:09:00,39.4,25.4,30.00,SW,225,0.0,0.0,57,0.00,,,0.00,WSDL version 420,2013-03-29 01:09:00,
2013-03-28 21:15:00,39.5,25.6,30.00,SW,225,0.0,0.0,57,0.00,,,0.00,WSDL version 420,2013-03-29 01:15:00,
2013-03-28 21:21:00,39.5,25.5,30.00,South,180,0.0,0.0,57,0.00,,,0.00,WSDL version 420,2013-03-29 01:21:00,
2013-03-28 21:27:00,39.3,25.6,30.00,WNW,293,0.0,0.0,58,0.00,,,0.00,WSDL version 420,2013-03-29 01:27:00,
2013-03-28 21:34:00,39.3,25.7,30.03,WNW,293,0.0,0.0,58,0.00,,,0.00,WSDL version 420,2013-03-29 01:34:00,
2013-03-28 21:40:00,39.2,25.7,30.03,NNE,23,0.0,0.0,58,0.00,,,0.00,WSDL version 420,2013-03-29 01:40:00,
2013-03-28 21:46:00,39.2,25.6,30.03,NNE,23,0.0,0.0,58,0.00,,,0.00,WSDL version 420,2013-03-29 01:46:00,
2013-03-28 21:52:00,39.1,25.7,30.03,North,-999,-999.0,-999.0,58,0.00,,,0.00,WSDL version 420,2013-03-29 01:52:00,
2013-03-28 21:58:00,39.1,25.9,30.03,South,180,0.0,0.0,59,0.00,,,0.00,WSDL version 420,2013-03-29 01:58:00,
2013-03-28 22:04:00,39.1,25.9,30.03,South,180,0.0,0.0,59,0.00,,,0.00,WSDL version 420,2013-03-29 02:04:00,
2013-03-28 22:10:00,39.1,25.8,30.03,ESE,113,0.0,0.0,58,0.00,,,0.00,WSDL version 420,2013-03-29 02:10:00,
2013-03-28 22:17:00,39.2,25.9,30.03,ESE,113,0.0,0.0,58,0.00,,,0.00,WSDL version 420,2013-03-29 02:17:00,
2013-03-28 22:23:00,39.2,26.1,30.03,North,-999,-999.0,-999.0,59,0.00,,,0.00,WSDL version 420,2013-03-29 02:23:00,
2013-03-28 22:29:00,39.2,26.0,30.03,NE,45,0.0,0.0,59,0.00,,,0.00,WSDL version 420,2013-03-29 02:29:00,
2013-03-28 22:35:00,39.3,26.1,30.03,North,-999,-999.0,-999.0,59,0.00,,,0.00,WSDL version 420,2013-03-29 02:35:00,
2013-03-28 22:43:00,39.2,26.1,30.03,WNW,293,0.0,0.0,59,0.00,,,0.00,WSDL version 420,2013-03-29 02:43:00,
2013-03-28 22:49:00,39.2,26.1,30.03,WNW,293,0.0,0.0,59,0.00,,,0.00,WSDL version 420,2013-03-29 02:49:00,
2013-03-28 22:55:00,39.4,26.3,30.03,WNW,293,0.0,0.0,59,0.00,,,0.00,WSDL version 420,2013-03-29 02:55:00,
2013-03-28 23:01:00,39.8,26.7,30.03,WNW,300,0.0,0.0,59,0.00,,,0.00,WSDL version 420,2013-03-29 03:01:00,
2013-03-28 23:07:00,39.7,26.5,30.03,South,191,0.0,0.0,59,0.00,,,0.00,WSDL version 420,2013-03-29 03:07:00,
2013-03-28 23:13:00,39.7,26.8,30.03,SE,135,2.7,2.7,60,0.00,,,0.00,WSDL version 420,2013-03-29 03:13:00,
2013-03-28 23:19:00,39.7,26.8,30.03,South,188,0.0,2.7,59,0.00,,,0.00,WSDL version 420,2013-03-29 03:19:00,
2013-03-28 23:25:00,40.0,26.8,30.03,SSE,158,0.9,0.9,59,0.00,,,0.00,WSDL version 420,2013-03-29 03:25:00,
2013-03-28 23:31:00,39.8,26.5,30.03,ESE,113,0.0,0.9,58,0.00,,,0.00,WSDL version 420,2013-03-29 03:31:00,
2013-03-28 23:38:00,39.7,26.5,30.03,ESE,113,0.0,2.2,59,0.00,,,0.00,WSDL version 420,2013-03-29 03:38:00,
2013-03-28 23:44:00,39.7,26.3,30.03,NE,45,0.9,2.2,58,0.00,,,0.00,WSDL version 420,2013-03-29 03:44:00,
2013-03-28 23:50:00,39.6,26.0,30.03,NE,51,0.5,2.2,58,0.00,,,0.00,WSDL version 420,2013-03-29 03:50:00,
2013-03-28 23:56:00,39.7,26.5,30.03,ENE,68,0.0,2.0,59,0.00,,,0.00,WSDL version 420,2013-03-29 03:56:00,